Baton Rouge, LA

7:31 AM CST on December 10, 2019 (GMT -0600)
Baton Rouge Metro-Ryan

Weather History for KBTR - July, 2019

Change the Weather History Date:

Monday, July 22, 2019

  Actual Average Record
Temperature  
Mean Temperature 82 °F 83 °F  
Max Temperature 91 °F 92 °F 99 °F (1924)
Min Temperature 73 °F 74 °F 63 °F (1915)
Degree Days  
Heating Degree Days 0 0  
Month to date heating degree days 0 0  
Since 1 June heating degree days 0 0  
Since 1 July heating degree days 0 0  
Cooling Degree Days 17 18  
Month to date cooling degree days 418 396  
Year to date cooling degree days 1595 1445  
Since 1 June cooling degree days 924 880  
Growing Degree Days 32 (Base 50)    
Moisture  
Dew Point 74 °F    
Average Humidity 78    
Maximum Humidity 100    
Minimum Humidity 56    
Precipitation  
Precipitation 0.02 in 0.14 in 2.00 in (1921)
Month to date precipitation 5.40 3.57  
Year to date precipitation 39.65 34.50  
Snow  
Snow 0.00 in - - ()
Month to date snowfall 0.0  
Since 1 June snowfall 0.0  
Since 1 July snowfall 0.0  
Snow Depth 0.00 in    
Sea Level Pressure  
Sea Level Pressure 29.98 in    
Wind  
Wind Speed 5 mph (WNW)    
Max Wind Speed 18 mph    
Max Gust Speed 22 mph    
Visibility 8 miles    
Events Fog , Rain , Thunderstorm    
T = Trace of Precipitation, MM = Missing Value Source: NWS Daily Summary

Daily Weather History Graph

Daily Weather History Graph

Search for Another Location

Airport or City:

Astronomy

Jul. 22, 2019 Rise Set
Actual Time 6:16 AM CDT 8:05 PM CDT
Civil Twilight 5:49 AM CDT 8:32 PM CDT
Nautical Twilight 5:17 AM CDT 9:04 PM CDT
Astronomical Twilight 4:43 AM CDT 9:38 PM CDT
Moon 11:47 PM CDT (7/22) 11:14 AM CDT (7/22)
Length of Visible Light 14h 42m
Length of Day
13h 48m
Waning Gibbous, 72% of the Moon is Illuminated
Jul 22
Waning Gibbous
Jul 24
Last Quarter
Jul 31
New
Aug 7
First Quarter
Aug 15
Full

Hourly Weather History & Observations

Time (CDT) Temp. Heat Index Dew Point Humidity Pressure Visibility Wind Dir Wind Speed Gust Speed Precip Events Conditions
12:42 AM 75.0 °F - 73.9 °F 96% 29.98 in 10.0 mi Calm Calm - N/A   Mostly Cloudy
12:53 AM 75.0 °F - 73.9 °F 96% 29.97 in 10.0 mi Calm Calm - N/A   Mostly Cloudy
1:50 AM 73.4 °F - 73.4 °F 100% 29.98 in 10.0 mi East 3.5 mph - N/A   Scattered Clouds
1:53 AM 73.9 °F - 73.0 °F 97% 29.98 in 10.0 mi ENE 3.5 mph - N/A   Scattered Clouds
2:50 AM 73.4 °F - 73.4 °F 100% 29.97 in 8.0 mi Calm Calm - N/A   Mostly Cloudy
2:53 AM 73.9 °F - 73.0 °F 97% 29.97 in 8.0 mi Calm Calm - N/A   Mostly Cloudy
3:06 AM 73.9 °F - 73.0 °F 97% 29.97 in 8.0 mi North 3.5 mph - N/A   Scattered Clouds
3:17 AM 73.9 °F - 73.0 °F 97% 29.98 in 7.0 mi Calm Calm - N/A   Mostly Cloudy
3:25 AM 73.9 °F - 73.0 °F 97% 29.98 in 8.0 mi Calm Calm - N/A   Scattered Clouds
3:53 AM 73.0 °F - 73.0 °F 100% 29.98 in 7.0 mi ENE 3.5 mph - N/A   Scattered Clouds
4:39 AM 73.9 °F - 73.0 °F 97% 29.97 in 2.5 mi Calm Calm - N/A   Mostly Cloudy
4:49 AM 73.4 °F - 73.4 °F 100% 29.98 in 1.8 mi Calm Calm - N/A   Mostly Cloudy
4:53 AM 73.0 °F - 73.0 °F 100% 29.98 in 1.5 mi Calm Calm - N/A   Overcast
5:04 AM 73.0 °F - 73.0 °F 100% 29.98 in 0.8 mi ENE 3.5 mph - N/A   Mist
5:36 AM 73.0 °F - 73.0 °F 100% 29.98 in 2.0 mi Calm Calm - N/A   Overcast
5:44 AM 73.0 °F - 73.0 °F 100% 29.98 in 0.8 mi Calm Calm - N/A   Mist
5:53 AM 73.0 °F - 73.0 °F 100% 29.99 in 0.5 mi Calm Calm - N/A Fog Fog
6:20 AM 73.0 °F - 73.0 °F 100% 29.99 in 0.2 mi Calm Calm - N/A Fog Fog
6:32 AM 73.0 °F - 72.0 °F 96% 29.99 in 1.0 mi Calm Calm - N/A   Mist
6:37 AM 73.0 °F - 72.0 °F 96% 30.00 in 3.0 mi Calm Calm - N/A   Mostly Cloudy
6:42 AM 73.0 °F - 72.0 °F 96% 30.00 in 6.0 mi East 3.5 mph - N/A   Scattered Clouds
6:53 AM 73.0 °F - 73.0 °F 100% 30.00 in 9.0 mi Calm Calm - N/A   Partly Cloudy
7:53 AM 75.9 °F - 73.9 °F 94% 30.01 in 8.0 mi NE 3.5 mph - N/A   Clear
8:53 AM 81.0 °F 86.7 °F 75.0 °F 82% 30.01 in 10.0 mi Calm Calm - N/A   Mostly Cloudy
9:37 AM 82.0 °F 88.6 °F 75.0 °F 79% 30.01 in 10.0 mi Variable 3.5 mph - N/A   Mostly Cloudy
9:53 AM 81.0 °F 86.7 °F 75.0 °F 82% 30.01 in 10.0 mi West 4.6 mph - N/A   Mostly Cloudy
10:00 AM 82.9 °F 90.8 °F 75.9 °F 79% 30.01 in 10.0 mi Calm Calm - N/A   Scattered Clouds
10:04 AM 82.9 °F 90.8 °F 75.9 °F 79% 30.00 in 10.0 mi Calm Calm - N/A   Mostly Cloudy
10:53 AM 84.0 °F 91.9 °F 75.0 °F 74% 30.01 in 10.0 mi North 5.8 mph - N/A   Mostly Cloudy
11:53 AM 88.0 °F 98.5 °F 75.9 °F 67% 30.01 in 10.0 mi Variable 6.9 mph - N/A   Mostly Cloudy
12:00 PM 84.9 °F 93.3 °F 75.0 °F 72% 30.01 in 10.0 mi WNW 9.2 mph - N/A   Mostly Cloudy
12:05 PM 84.9 °F 93.3 °F 75.0 °F 72% 30.01 in 10.0 mi WNW 8.1 mph - N/A   Mostly Cloudy
12:53 PM 86.0 °F 93.8 °F 73.9 °F 67% 29.99 in 10.0 mi NW 8.1 mph - N/A   Mostly Cloudy
1:00 PM 89.1 °F 98.0 °F 73.9 °F 61% 29.99 in 10.0 mi North 8.1 mph - N/A   Partly Cloudy
1:53 PM 91.0 °F 99.3 °F 73.0 °F 55% 29.96 in 10.0 mi Variable 4.6 mph - N/A   Partly Cloudy
2:53 PM 89.1 °F 97.0 °F 73.0 °F 59% 29.94 in 10.0 mi Variable 3.5 mph - N/A   Mostly Cloudy
3:53 PM 87.1 °F 98.8 °F 77.0 °F 72% 29.93 in 10.0 mi South 6.9 mph - 0.00 in   Scattered Clouds
4:53 PM 86.0 °F 96.0 °F 75.9 °F 72% 29.92 in 10.0 mi South 13.8 mph - N/A   Mostly Cloudy
5:45 PM 82.0 °F 89.4 °F 75.9 °F 82% 29.93 in 6.0 mi SW 15.0 mph - 0.00 in Rain , Thunderstorm Thunderstorms and Rain
5:53 PM 81.0 °F 88.6 °F 78.1 °F 91% 29.93 in 6.0 mi SSW 13.8 mph - 0.02 in Rain , Thunderstorm Light Thunderstorms and Rain
6:00 PM 81.0 °F 88.6 °F 78.1 °F 91% 29.93 in 9.0 mi SW 11.5 mph - 0.00 in Rain Light Rain
6:23 PM 82.0 °F 90.2 °F 77.0 °F 85% 29.93 in 10.0 mi SW 9.2 mph - 0.00 in   Mostly Cloudy
6:53 PM 82.9 °F 92.8 °F 78.1 °F 85% 29.93 in 10.0 mi SW 8.1 mph - 0.00 in   Mostly Cloudy
7:53 PM 82.0 °F 89.4 °F 75.9 °F 82% 29.93 in 10.0 mi WSW 5.8 mph - N/A   Scattered Clouds
8:53 PM 82.0 °F 89.4 °F 75.9 °F 82% 29.97 in 10.0 mi Calm Calm - N/A   Scattered Clouds
9:53 PM 80.1 °F 85.8 °F 77.0 °F 90% 29.96 in 10.0 mi West 4.6 mph - N/A   Scattered Clouds
10:53 PM 79.0 °F - 75.9 °F 90% 29.96 in 10.0 mi West 3.5 mph - N/A   Clear
11:53 PM 78.1 °F - 75.9 °F 93% 29.94 in 10.0 mi North 3.5 mph - N/A   Clear